Location: Unspecified
(43.1763°N, 79.4719°W)
Time: 11:33:59
(UTC-05:00)

Okean 3 - Visible Passes

Search period start: 14 December 2018 00:00
Search period end: 24 December 2018 00:00
Orbit: 577 x 601 km, 82.5° (Epoch: 14 December)

Date Brightness Start Highest point End Pass type
(mag) Time Alt. Az. Time Alt. Az. Time Alt. Az.
14 Dec 6.0 05:28:41 10° SSW 05:28:41 10° SSW 05:28:46 10° SSW visible
14 Dec 3.5 17:47:37 10° S 17:51:56 89° WNW 17:56:15 10° N visible
15 Dec 4.1 17:55:42 10° SSW 17:59:56 59° W 18:04:13 10° N visible
16 Dec 4.9 18:03:58 10° SSW 18:08:00 39° WNW 18:12:04 10° N visible
17 Dec 5.6 18:12:26 10° SW 18:16:07 27° WNW 18:19:49 10° NNW visible
18 Dec 6.1 18:21:09 10° WSW 18:24:15 19° WNW 18:27:22 10° NNW visible
19 Dec 6.4 18:30:18 10° W 18:32:26 13° WNW 18:34:35 10° NW visible
22 Dec 4.8 17:14:46 10° SSW 17:18:51 42° WNW 17:22:57 10° N visible
23 Dec 5.5 17:23:12 10° SW 17:26:57 29° WNW 17:30:43 10° NNW visible
